Dewpoint
22 24 28 27 27 28 27 28 25 31 32 30 32 41 43 41 40 33 36 38 44 46 46 48 54 60 60 61 61 62 60 62 63 64 64 63 62 62 61 60 59 56 54 52
23 23 24 24 23 26 24 26 29 28 30 30 41 45 43 41 39 36 29 30 38 44 45 46 52 58 59 60 60 61 61 61 61 62 61 61 60 60 59 58 55 53 51 50
17 22 21 16 22 21 20 21 23 22 26 27 32 33 40 40 39 38 29 27 30 39 45 46 49 58 57 58 59 59 59 58 59 59 59 59 59 58 56 53 52 50 49 48
18 19 12 11 16 19 19 19 22 22 23 22 30 30 34 41 41 37 36 37 33 37 42 46 47 54 57 57 57 57 57 57 57 57 57 57 57 55 53 52 50 49 49 47
17 17 15 15 12 10 14 17 20 20 20 21 21 23 23 37 40 39 39 36 36 31 39 41 46 54 56 56 55 55 55 56 56 56 56 55 54 53 51 49 48 48 43 42
19 17 11 11 13 15 17 11 16 16 17 19 20 22 24 26 29 26 30 28 29 26 34 42 41 54 55 54 54 54 54 54 55 55 54 53 52 50 49 48 47 42 40 39
19 18 18 19 16 15 10 11 20 17 16 20 21 23 22 20 20 19 19 18 24 24 33 34 42 47 53 53 53 53 53 53 54 54 53 52 50 49 48 47 43 41 38 38
21 20 16 20 21 16 19 20 20 20 20 19 21 21 22 19 18 18 18 24 19 20 32 33 36 42 49 52 53 53 52 51 52 53 52 50 49 48 47 44 41 38 36 36
22 20 22 26 21 20 21 21 21 22 23 22 18 18 17 17 18 20 22 27 29 30 33 29 35 40 42 50 51 51 50 50 50 51 50 49 48 47 45 42 40 37 35 34
29 30 28 29 29 27 24 22 22 23 22 22 21 21 20 18 16 18 21 22 28 30 31 30 29 30 31 44 50 49 49 49 49 49 48 48 48 46 44 42 40 37 35 33
23 25 27 27 29 28 27 28 27 26 26 25 24 22 20 19 18 18 19 19 20 23 24 23 23 26 32 39 49 48 48 48 48 48 47 47 47 45 43 42 40 38 36 33
19 22 25 25 27 27 27 26 25 24 24 25 25 22 21 21 22 21 21 20 18 19 22 22 23 26 30 40 48 48 47 47 47 47 47 47 44 42 42 42 41 39 37 34
25 26 28 28 26 25 24 24 24 24 23 22 22 22 22 21 22 23 23 23 21 20 20 22 27 28 39 42 40 47 47 46 46 46 46 45 43 41 39 38 39 39 37 36
26 24 24 24 24 25 26 25 25 25 25 25 25 24 22 22 23 23 23 23 24 25 25 26 28 29 37 38 37 38 47 46 46 45 46 44 42 41 40 37 36 36 37 36
25 25 25 26 27 27 27 27 26 26 26 26 27 27 28 28 26 23 25 25 25 25 24 25 26 26 32 33 36 37 45 45 45 45 45 43 42 40 39 38 37 34 33 34
27 27 27 27 27 28 27 27 27 26 27 27 27 27 27 28 29 29 30 25 25 26 26 26 28 29 30 35 38 39 42 44 44 44 43 41 40 39 38 37 35 33 33 32
26 26 27 27 28 28 28 28 28 27 27 27 28 29 29 30 30 30 30 31 28 26 25 26 27 28 34 36 39 40 42 44 44 43 41 41 39 38 38 36 35 34 34 33
29 28 28 27 27 28 28 28 28 27 27 28 28 29 29 30 30 30 31 32 33 33 33 31 31 34 37 39 39 40 41 42 42 43 41 40 39 38 37 36 35 34 33 33
27 26 27 26 27 28 27 27 27 28 29 29 29 29 29 29 29 30 31 33 34 34 34 35 36 38 38 38 38 39 40 41 41 42 41 39 38 37 36 35 34 34 33 32
27 28 28 28 27 28 27 28 28 28 29 31 31 31 32 32 33 34 34 34 34 36 35 35 35 35 36 36 36 37 38 40 41 42 40 38 37 36 35 34 34 33 33 33
28 29 29 29 28 29 28 29 29 28 29 30 30 30 30 32 33 34 32 31 34 35 35 35 35 35 35 36 36 36 37 39 41 41 38 37 36 35 34 34 33 33 33 33
29 29 29 28 28 28 30 31 31 30 29 29 29 30 30 30 31 31 31 30 32 32 32 32 32 33 34 35 37 37 38 39 41 39 38 36 35 35 34 34 33 33 33 32
29 28 29 29 29 29 29 29 29 30 29 29 28 28 28 29 29 27 26 29 31 31 31 31 32 32 33 34 36 38 39 40 40 38 37 36 35 34 34 33 33 33 32 32
31 28 29 29 29 27 27 29 30 29 29 30 30 30 29 28 28 30 30 31 31 31 31 32 34 34 35 36 36 38 39 38 37 36 36 35 34 34 33 32 32 32 32 32
30 30 30 28 27 27 28 28 29 28 28 28 29 30 30 30 29 30 30 30 31 31 30 31 31 32 32 33 34 34 35 34 34 34 33 33 32 32 32 32 32 32 32 33
29 30 30 30 26 26 28 28 27 28 28 27 27 29 29 30 31 31 31 31 31 30 30 31 31 31 31 31 31 31 31 31 32 32 32 32 32 32 32 32 32 32 32 32
29 31 28 27 28 27 28 29 28 27 28 28 28 29 29 30 30 30 30 30 30 30 30 30 31 31 31 31 31 31 31 31 32 32 32 32 33 33 32 32 32 32 32 32
Wind_Speed
10 9 10 11 11 9 4 4 5 4 22 10 14 12 20 19 25 23 23 19 14 14 14 14 17 17 16 15 13 13 17 20 22 22 24 26 27 26 26 27 26 27 27 25
11 15 15 10 19 17 13 11 16 16 20 10 13 9 15 20 22 22 23 23 15 8 13 11 13 16 15 13 13 14 12 12 15 21 23 26 27 26 27 25 24 24 25 26
4 7 8 14 23 20 11 12 14 16 13 9 14 8 5 17 15 23 19 18 22 8 7 11 11 17 15 15 15 12 12 10 14 15 21 24 26 29 28 29 27 26 24 25
8 7 9 12 12 8 21 17 23 20 19 11 7 16 5 4 13 27 27 26 23 18 3 8 11 14 17 17 16 15 14 16 10 16 20 24 27 29 29 28 31 28 27 25
5 8 14 20 16 13 9 13 14 19 18 13 5 7 12 14 6 13 14 17 24 20 16 6 13 16 18 16 16 17 17 16 18 14 16 18 22 26 26 27 24 25 22 26
7 5 7 10 12 4 4 12 12 10 4 4 6 5 8 13 7 8 8 17 21 26 10 12 12 21 21 20 20 21 21 19 18 18 19 19 22 23 21 24 24 23 22 22
20 12 13 11 21 22 11 4 13 4 5 7 6 5 5 6 1 7 9 9 10 20 23 10 12 7 20 21 24 19 19 21 21 19 21 23 22 21 26 24 23 24 25 22
10 11 16 15 4 2 5 12 11 9 9 7 4 8 9 6 5 8 12 15 4 15 15 20 6 17 17 21 17 18 19 20 22 23 19 20 24 23 22 24 26 25 24 21
13 12 3 10 7 7 13 9 7 11 11 11 8 6 4 4 8 12 9 15 11 11 12 16 11 2 14 23 19 22 22 22 20 21 21 22 24 23 24 25 26 24 26 23
4 8 13 18 20 14 21 16 10 15 15 13 13 13 11 10 11 14 11 12 13 13 14 10 14 15 16 8 23 25 23 22 22 23 22 22 20 22 24 24 24 24 23 23
17 13 11 6 12 9 15 15 16 13 10 13 17 18 17 13 15 16 17 16 14 13 15 14 12 13 13 8 19 23 23 22 22 20 24 22 20 22 23 23 27 31 28 31
18 21 21 13 4 6 11 14 11 13 15 16 16 14 15 16 14 14 15 18 18 20 13 14 15 14 10 7 18 21 22 21 22 23 23 22 20 17 10 14 17 17 20 21
25 23 26 19 8 13 12 15 14 14 14 14 11 13 17 18 16 16 18 16 16 18 22 18 11 6 5 7 15 13 22 23 23 24 25 24 23 24 24 14 18 20 27 28
12 10 7 16 13 16 19 21 22 21 21 20 20 16 17 19 19 20 21 23 22 18 17 16 14 15 7 4 5 6 17 23 27 27 27 25 26 26 26 27 27 21 24 28
7 11 11 14 17 16 18 21 24 25 23 25 23 23 23 24 21 22 22 24 26 26 25 22 24 28 18 14 6 4 12 13 17 22 24 24 23 24 23 24 23 23 21 20
13 15 15 14 14 16 17 19 23 25 25 27 27 27 27 26 27 28 25 22 22 25 29 27 24 27 20 14 11 12 15 23 17 14 20 22 22 24 24 24 24 26 27 28
12 16 16 16 17 20 21 23 25 29 29 30 31 29 29 28 28 29 29 26 27 29 28 25 28 27 18 14 16 16 16 20 28 18 16 23 26 26 25 26 26 27 27 28
13 14 15 16 19 21 23 25 27 28 29 29 31 28 27 29 31 31 28 24 25 25 24 23 21 19 17 19 20 18 18 19 22 28 27 23 22 25 26 26 26 27 26 26
16 16 16 18 18 20 23 24 25 26 27 28 29 31 32 33 33 33 27 24 22 23 27 18 16 17 19 19 16 15 18 19 23 25 27 28 26 25 26 27 28 28 30 31
16 15 16 17 19 19 20 20 22 23 23 24 24 24 29 28 27 26 25 28 27 20 12 10 13 19 21 21 23 19 19 20 23 25 27 28 29 28 28 30 30 30 32 32
15 16 16 17 19 18 16 16 19 21 22 22 22 22 19 17 13 13 16 19 18 19 21 21 21 19 15 17 19 21 21 21 24 27 28 29 29 28 28 30 30 31 32 30
14 13 14 17 17 18 17 18 18 18 18 18 19 18 17 15 12 13 15 18 16 17 16 18 19 23 23 22 22 24 23 24 26 27 29 30 29 29 29 29 29 29 30 28
14 13 13 15 17 17 18 16 17 18 17 17 18 17 16 14 11 13 16 10 14 17 17 18 21 24 25 24 23 24 25 27 30 30 29 29 30 30 31 30 29 29 30 28
13 13 12 14 14 15 19 19 18 16 17 16 17 17 15 14 12 10 11 12 13 16 17 17 20 26 26 22 23 24 25 27 27 28 28 29 28 28 28 28 27 26 26 26
14 11 12 11 13 13 16 17 16 16 16 16 17 17 18 16 11 13 11 10 9 5 5 4 9 12 12 13 16 19 22 24 26 28 29 28 29 29 28 26 26 26 24 22
13 9 10 10 11 11 12 13 14 15 16 16 15 17 17 17 17 15 13 13 13 14 13 12 12 15 15 17 18 20 22 25 26 26 28 28 28 28 28 27 27 25 23 22
11 8 8 9 9 11 11 12 12 14 15 16 14 17 17 18 20 19 18 16 16 16 16 16 16 18 19 20 21 22 22 23 25 26 26 26 26 26 27 26 23 22 22 22
Wind_Direction
260 219 245 277 290 289 278 286 227 337 248 150 26 355 359 353 359 11 23 38 86 91 93 90 89 98 100 100 111 135 168 174 169 164 162 159 159 159 159 160 162 160 156 156
283 263 225 249 253 240 252 252 270 270 285 277 94 40 350 353 354 346 8 8 9 95 110 104 114 119 114 104 91 96 103 123 140 151 151 156 153 153 153 154 156 157 157 153
288 23 323 267 241 222 215 211 231 266 246 333 348 336 350 327 333 332 350 357 355 8 144 130 133 138 143 143 136 132 133 133 147 150 152 155 156 152 153 152 152 156 155 151
276 319 272 264 302 241 210 227 227 247 267 264 223 288 238 341 356 331 331 332 341 339 336 161 162 143 144 144 146 149 158 157 162 158 159 157 157 158 157 158 158 157 158 157
242 233 286 294 274 253 225 248 239 242 244 250 183 243 287 137 217 257 295 306 297 305 296 197 179 152 146 154 157 163 172 169 166 165 157 160 158 160 157 154 153 150 147 142
222 251 251 251 307 71 139 285 244 231 336 312 149 228 230 123 181 313 308 324 284 309 313 257 206 157 158 169 174 184 180 174 169 165 164 165 158 153 154 151 145 136 135 138
226 240 267 274 261 288 247 248 8 101 152 109 152 196 268 318 88 328 290 267 328 310 278 296 251 169 173 174 193 189 172 167 165 170 171 166 159 157 151 149 138 142 142 145
207 224 254 292 80 261 322 329 341 358 23 38 14 219 199 204 291 289 288 303 293 304 258 257 262 204 180 196 198 167 166 172 170 166 169 166 160 158 157 149 146 144 140 140
201 219 322 336 14 326 295 281 314 320 330 327 309 297 272 285 305 284 281 298 320 304 322 328 359 68 233 200 172 169 167 174 177 164 163 166 164 161 157 155 153 153 154 158
319 268 283 311 296 295 299 295 309 307 294 288 288 286 268 236 257 283 278 292 293 289 305 333 346 343 332 240 172 168 173 175 172 167 163 167 169 166 163 164 161 161 160 155
277 270 274 266 247 254 287 314 306 301 332 326 324 313 282 269 247 245 249 263 279 291 294 299 312 317 330 347 172 173 176 174 171 171 167 168 170 173 175 179 174 170 175 166
274 286 292 296 316 313 278 288 302 299 291 282 283 282 302 309 308 284 252 239 250 276 277 284 292 295 333 330 179 184 175 171 172 170 178 175 165 157 161 176 171 163 158 172
256 273 275 284 336 5 349 340 330 319 307 302 289 293 293 286 282 285 295 286 247 246 256 278 261 280 95 37 23 204 185 177 172 172 177 174 173 167 161 151 159 158 156 156
329 6 351 0 358 350 345 340 334 329 328 325 322 314 279 262 268 271 267 265 268 260 256 268 275 271 238 273 338 16 209 192 179 179 181 179 176 176 169 163 166 167 167 162
319 11 10 359 356 349 337 331 324 316 316 310 311 309 310 310 299 271 252 249 251 247 246 247 252 264 254 256 222 189 184 205 203 183 181 181 181 175 171 168 166 151 140 144
3 7 359 347 330 323 320 312 304 300 300 296 294 292 290 288 288 290 299 275 245 243 237 235 239 247 250 232 204 181 179 182 196 205 178 173 176 175 171 168 164 160 160 158
3 345 342 341 338 326 318 310 303 298 296 290 288 287 284 280 279 279 281 282 281 258 241 232 238 242 235 223 201 187 178 178 173 192 202 185 176 179 176 171 170 169 167 162
359 345 333 325 316 310 304 300 296 293 289 289 287 283 279 275 269 271 272 274 279 286 271 239 229 218 213 199 194 188 183 180 183 187 184 190 191 179 176 173 171 169 161 160
346 331 321 316 312 309 305 301 298 296 293 288 283 277 270 266 265 263 260 256 259 264 266 249 220 202 203 207 210 200 198 192 185 190 191 184 181 184 178 173 170 170 162 161
330 324 322 316 315 305 300 304 305 301 299 296 290 290 274 257 253 251 246 246 246 242 243 249 233 227 222 219 216 217 216 206 192 193 187 183 181 181 179 174 169 168 165 164
324 324 320 314 311 305 304 309 310 312 311 309 309 304 299 294 283 256 249 249 250 249 253 253 254 252 234 219 209 217 222 212 198 190 185 180 180 180 176 171 169 167 166 163
320 323 325 323 321 323 324 322 313 315 318 321 322 318 313 306 293 276 255 254 266 264 260 256 249 245 241 233 222 221 217 212 198 185 181 178 176 174 171 166 165 165 162 156
332 334 335 337 332 328 329 332 335 331 334 335 330 331 324 305 299 295 284 271 248 258 256 252 248 245 240 230 227 221 215 200 186 180 177 173 171 168 164 159 160 158 153 153
330 338 332 325 328 347 347 338 336 335 336 343 347 344 340 338 320 316 298 292 280 266 254 250 239 235 230 226 217 206 191 178 170 166 163 160 157 157 154 148 151 148 143 142
335 332 334 339 350 348 340 338 335 342 342 349 358 355 353 348 339 332 349 353 0 13 45 63 129 136 134 134 140 146 147 148 149 148 147 146 144 140 138 141 139 133 134 141
334 338 331 337 346 346 341 340 346 346 348 351 360 360 359 0 360 0 5 18 33 44 50 54 72 84 92 100 107 115 120 124 128 130 131 131 130 130 133 129 127 131 138 141
335 330 346 342 347 348 347 348 348 353 353 350 353 358 4 8 8 12 18 23 35 48 54 58 66 78 88 94 97 101 106 111 115 118 120 124 127 127 124 124 128 134 136 140